Lexington Weather

Lexington, Massachusetts, USA

68°F
7/3/2020 12:57pm 
  • Lexington Conditions: Overcast
  • Temperature: 67.8°F / 19.9°CColder 0.7°F than last hour.
  • Dew Point: 63.9°FDecreased 0.7°Fsince last hour.
  • Relative Humidity: 87
  • Wind: Wind from NNE NNE 1 mph, 10-min avg: 1 mph, gust: 4 mph
  • Barometer: 29.86 in Steady
  • Visibility: 10 miles
  • Rain Today: 0.00 in
  •   

Regional Weather Roundup
for Boston / Norton, MA

        
000
ASUS41 KBOX 281704
RWRBOX

REGIONAL WEATHER ROUNDUP
NATIONAL WEATHER SERVICE BOSTON/NORTON MA
100 PM EDT SUN JUN 28 2020

NOTE:  "FAIR" INDICATES FEW OR NO CLOUDS BELOW 12,000 FEET WITH NO 
SIGNIFICANT WEATHER AND/OR OBSTRUCTIONS TO VISIBILITY.

MAZALL-281800-
EASTERN MASSACHUSETTS
  
CITY           SKY/WX    TMP DP  RH WIND       PRES   REMARKS
BOSTON         PTSUNNY   78  65  63 E16       29.72                   
BEVERLY        MOSUNNY   78  66  66 E12       29.73F                  
LAWRENCE       PTSUNNY   83  66  56 CALM      29.74F                  
BEDFORD        TSTM      81  68  64 SW10      29.72F                  
BLUE HILL        N/A     81  67  62 S12       29.74F                  
NORWOOD        MOSUNNY   86  68  54 SW9       29.72F                  
MARSHFIELD     MOSUNNY   81  72  74 VRB7      29.74F                  
PLYMOUTH       PTSUNNY   83  69  62 SW12G17   29.75F                  
TAUNTON        MOSUNNY   84  68  58 S9        29.74F                  
NEW BEDFORD    MOSUNNY   84  68  58 S10       29.75F                  
$$

MAZALL-281800-
CAPE COD AND THE ISLANDS
  
CITY           SKY/WX    TMP DP  RH WIND       PRES   REMARKS
FALMOUTH       SUNNY     82  68  61 SW9       29.77F                  
HYANNIS        MOSUNNY   79  67  66 S7        29.76S                  
CHATHAM        MOSUNNY   78  67  68 S8        29.79S                  
PROVINCETOWN   CLOUDY    80  68  66 S9        29.77S                  
NANTUCKET      CLOUDY    70  65  84 S7        29.79S                  
MARTHAS VNYRD  MOSUNNY   76  67  73 S9        29.77F                  
$$
 
MAZALL-281800-
CENTRAL AND WESTERN MASSACHUSETTS
  
CITY           SKY/WX    TMP DP  RH WIND       PRES   REMARKS
WORCESTER      PTSUNNY   79  64  60 W9        29.77F                  
FITCHBURG      PTSUNNY   84  63  49 SW9       29.74F                  
ORANGE         PTSUNNY   80  65  59 W6        29.75F                  
SPRINGFIELD    PTSUNNY   83  66  55 S5        29.72F                  
WESTFIELD      PTSUNNY   82  67  60 S8        29.72F                  
NORTH ADAMS    CLOUDY    73  68  84 CALM      29.75F                  
PITTSFIELD     LGT RAIN  74  67  78 S6        29.75F                  
$$
 
RIZALL-281800-
RHODE ISLAND
  
CITY           SKY/WX    TMP DP  RH WIND       PRES   REMARKS
PROVIDENCE     PTSUNNY   79  68  69 SE15      29.75F                  
NEWPORT        SUNNY     79  65  62 S10       29.77S                  
BLOCK ISLAND   SUNNY     75  69  81 S12       29.78S                  
SMITHFIELD     PTSUNNY   80  71  74 VRB3      29.76F                  
WESTERLY       SUNNY     79  68  69 S8        29.77S                  
$$
 
CTZALL-281800-
CONNECTICUT
  
CITY           SKY/WX    TMP DP  RH WIND       PRES   REMARKS
BRADLEY INTL   PTSUNNY   84  67  56 SE8       29.72F                  
HARTFORD       MOSUNNY   86  67  52 SW8       29.72F                  
BRIDGEPORT     SUNNY     77  70  79 E10       29.74F                  
DANBURY        MOSUNNY   81  66  60 SW8       29.75F                  
GROTON         SUNNY     77  71  82 S7        29.75F                  
NEW HAVEN      SUNNY     84  71  65 VRB5      29.74F                  
CHESTER        FAIR      81  70  69 S6        29.76F                  
MERIDEN        MOSUNNY   83  67  58 S12G17    29.73F                  
WILLIMANTIC    MOSUNNY   82  69  64 S7        29.75S                  
OXFORD         MOSUNNY   83  69  62 S7        29.77F                  
$$

MEZ002-015-021-024-NHZ003-005-008-011-012-014-VTZ005-008-281800-
NORTHERN NEW ENGLAND
  
CITY           SKY/WX    TMP DP  RH WIND       PRES   REMARKS
PORTLAND ME    PTSUNNY   79  62  56 E10       29.75S                  
BANGOR ME      PTSUNNY   81  59  47 VRB6      29.74F                  
CONCORD NH     CLOUDY    81  63  54 S9        29.73F                  
MANCHESTER NH  CLOUDY    81  65  58 SW7       29.72F                  
NASHUA NH      CLOUDY    78  71  79 NW9       29.74F                  
PORTSMOUTH NH  PTSUNNY   77  62  60 SE9       29.72F                  
JAFFREY NH     CLOUDY    76  64  66 SW7       29.77F                  
KEENE NH       CLOUDY    78  65  63 VRB6      29.74F                  
BURLINGTON VT  PTSUNNY   80  65  59 SW12G18   29.71F                  
MT. WASHINGTON FOG       57  57 100 W14         N/A  VSB 1/16         
$$

NYZ052-076-281800-
EASTERN NEW YORK
  
CITY           SKY/WX    TMP DP  RH WIND       PRES   REMARKS
ALBANY         CLOUDY    72  67  84 E6        29.74F FOG              
NEW YORK CITY  PTSUNNY   88  64  44 VRB5      29.71F                  
$$
 
ANZALL-281800-
MARINE OBSERVATIONS
  
STATION/POSITION TIME  TEMP    WIND        PRES    VSBY  WAVE
                       AIR SEA DIR/SP/G                  HT/PER
                 (UTC) (F)     (DEG/KT/KT) (MB)    (MI)  (FT/S)
BOSTON BUOY      1650   70 69  120/ 10/ 12 1006.2F         1/ 7
BUZZARDS BAY     1600          170/  7/  7 1009.3F
NANTUCKET SOUND  1650   68 70  180/ 10/ 10 1007.7F         1/ 7
MASS BAY-STELLWA NOT AVBL
ISLE OF SHOALS   1600   70     140/ 15/ 15 1006.7F
S OF BLOCK IS    1626      70                N/A           4/ 6
$$

......................KEY.........................
  SKY/WX - SKY CONDITION/PRESENT WEATHER
  TMP    - TEMPERATURE IN FAHRENHEIT
  DWPT   - DEWPOINT IN FAHRENHEIT
  RH     - RELATIVE HUMIDITY IN PERCENT
  WIND   - DIRECTION AND SPEED IN MPH
  PRES   - MEAN SEA LEVEL PRESSURE IN INCHES OF HG
  WCI    - WIND CHILL INDEX
  VSB    - VISIBILITY IN MILES
  HX     - HEAT INDEX
  TC     - TEMPERATURE IN CELSIUS
  VRB    - VARIABLE WIND DIRECTION
  N/A    - NOT AVAILABLE
  
      

Other recent Regional Weather Roundups

Fri Jul 3, 12:04pm

Fri Jul 3, 11:04am

Fri Jul 3, 10:04am

Fri Jul 3, 9:04am

Fri Jul 3, 8:04am

Fri Jul 3, 7:04am

Fri Jul 3, 6:04am

Fri Jul 3, 5:04am

Fri Jul 3, 4:04am

Fri Jul 3, 3:04am

Fri Jul 3, 2:04am

Fri Jul 3, 1:04am

Fri Jul 3, 12:04am

Thu Jul 2, 11:05pm

Thu Jul 2, 10:04pm

Thu Jul 2, 9:04pm

Thu Jul 2, 8:04pm

Thu Jul 2, 7:05pm

Thu Jul 2, 6:04pm

Thu Jul 2, 5:05pm

Thu Jul 2, 4:04pm

Thu Jul 2, 3:04pm

Thu Jul 2, 2:04pm

Thu Jul 2, 1:05pm

Thu Jul 2, 12:04pm

Thu Jul 2, 11:04am

Thu Jul 2, 10:05am

Thu Jul 2, 9:05am

Thu Jul 2, 8:04am

Thu Jul 2, 7:04am

Thu Jul 2, 6:05am

Thu Jul 2, 5:04am

Thu Jul 2, 4:04am

Thu Jul 2, 3:04am

Thu Jul 2, 2:04am

Thu Jul 2, 1:04am

Thu Jul 2, 12:05am

Wed Jul 1, 11:05pm

Wed Jul 1, 10:04pm

Wed Jul 1, 9:04pm

Wed Jul 1, 8:04pm

Wed Jul 1, 7:04pm

Wed Jul 1, 6:04pm

Wed Jul 1, 5:05pm

Wed Jul 1, 4:04pm

Wed Jul 1, 3:04pm

Wed Jul 1, 2:04pm

Wed Jul 1, 1:04pm

Wed Jul 1, 12:04pm

Wed Jul 1, 11:04am

Wed Jul 1, 10:04am

Wed Jul 1, 9:04am

Wed Jul 1, 8:05am

Wed Jul 1, 7:04am

Wed Jul 1, 6:04am

Wed Jul 1, 5:04am

Wed Jul 1, 4:04am

Wed Jul 1, 3:04am

Wed Jul 1, 2:04am

Wed Jul 1, 1:04am

Wed Jul 1, 12:04am

Tue Jun 30, 11:04pm

Tue Jun 30, 10:05pm

Tue Jun 30, 9:04pm

Tue Jun 30, 8:05pm

Tue Jun 30, 7:05pm

Tue Jun 30, 6:04pm

Tue Jun 30, 5:04pm

Tue Jun 30, 4:04pm

Tue Jun 30, 3:04pm

Tue Jun 30, 2:04pm

Tue Jun 30, 1:04pm

Tue Jun 30, 12:04pm

Tue Jun 30, 11:04am

Tue Jun 30, 10:04am

Tue Jun 30, 9:04am

Tue Jun 30, 8:04am

Tue Jun 30, 7:04am

Tue Jun 30, 6:04am

Tue Jun 30, 5:04am

Tue Jun 30, 4:04am

Tue Jun 30, 3:04am

Tue Jun 30, 2:04am

Tue Jun 30, 1:04am

Tue Jun 30, 12:04am

Mon Jun 29, 11:04pm

Mon Jun 29, 10:05pm

Mon Jun 29, 9:04pm

Mon Jun 29, 8:05pm

Mon Jun 29, 7:04pm

Mon Jun 29, 6:04pm

Mon Jun 29, 5:04pm

Mon Jun 29, 4:05pm

Mon Jun 29, 3:04pm

Mon Jun 29, 2:04pm

Mon Jun 29, 1:04pm

Mon Jun 29, 12:04pm

Mon Jun 29, 11:04am

Mon Jun 29, 10:04am

Mon Jun 29, 9:04am

Mon Jun 29, 8:04am

Mon Jun 29, 7:04am

Mon Jun 29, 6:04am

Mon Jun 29, 5:04am

Mon Jun 29, 4:04am

Mon Jun 29, 3:04am

Mon Jun 29, 2:04am

Mon Jun 29, 1:04am

Mon Jun 29, 12:04am

Sun Jun 28, 11:05pm

Sun Jun 28, 10:04pm

Sun Jun 28, 9:05pm

Sun Jun 28, 8:04pm

Sun Jun 28, 7:04pm

Sun Jun 28, 6:04pm

Sun Jun 28, 5:04pm

Sun Jun 28, 4:04pm

Sun Jun 28, 3:04pm

Sun Jun 28, 2:05pm

Sun Jun 28, 12:04pm

Sun Jun 28, 11:04am

Sun Jun 28, 10:04am

Sun Jun 28, 9:04am

Sun Jun 28, 8:04am

Sun Jun 28, 7:04am

Sun Jun 28, 6:04am

Sun Jun 28, 5:04am

Sun Jun 28, 4:04am

Sun Jun 28, 3:04am

Sun Jun 28, 2:05am

Sun Jun 28, 1:04am

Sun Jun 28, 12:05am

Sat Jun 27, 11:04pm

Sat Jun 27, 10:04pm

Sat Jun 27, 9:04pm

Sat Jun 27, 8:04pm

Sat Jun 27, 7:04pm

Sat Jun 27, 6:04pm

Sat Jun 27, 5:04pm

Sat Jun 27, 4:05pm

Sat Jun 27, 3:04pm

Sat Jun 27, 2:04pm

Sat Jun 27, 1:05pm

Sat Jun 27, 12:04pm

Sat Jun 27, 11:04am

Sat Jun 27, 10:04am

Sat Jun 27, 9:04am

Sat Jun 27, 8:04am

Sat Jun 27, 7:04am

Sat Jun 27, 6:04am

Sat Jun 27, 5:05am

Sat Jun 27, 4:04am

Sat Jun 27, 3:04am

Sat Jun 27, 2:04am

Sat Jun 27, 1:04am

Sat Jun 27, 12:04am

Fri Jun 26, 11:04pm

Fri Jun 26, 10:04pm

Fri Jun 26, 9:05pm

Fri Jun 26, 8:04pm

Fri Jun 26, 7:05pm

Fri Jun 26, 6:04pm

Fri Jun 26, 5:04pm

Fri Jun 26, 4:04pm

Fri Jun 26, 3:04pm

Fri Jun 26, 2:05pm

Fri Jun 26, 1:04pm

Meta data:

ID: bcba2bb4-c3d7-4326-8562-67b2231257ea
Link: https://api.weather.gov/products/bcba2bb4-c3d7-4326-8562-67b2231257ea